"Pseudo-MPEC" for C3K4A12

Created 2020 Oct 19 5:07:10 UT using Find_Orb

Click here for an explanation of pseudo-MPECs

 
 Astrometry: 
     C3K4A12  C2020 10 09S;BLGR2l?1A8c84oI5+r[gH;TgrJS\$I%PJ1=q*N8B7P0-SFlL'YF51
     C3K4A12  C2020 10 09tBg;:)Astrometry?H@CqyNudklns*615rhFd:'w4Ie)HIfhF7AtF51
     C3K4A12  C2020 10 092+?%yredacted;mciXxDPgjn'rEpudS93YUIpQw)\qb6dKYBJ#LkF51
     C3K4A12  C2020 10 14H@r@?Bo*v/qRhLU9#Sv:J^*clickhcc0gg\X5V+/u'$%#gv00#eIF52
     C3K4A12  C2020 10 14ZryhereNB]XdBthc0Rf_;g?uDaLTforqO@tc8s850py0lNRU^-aKF52
     C3K4A12  C2020 10 14lAYB$]h2TqRN[E!MZ1C3u6aexplanationNEF5-K'/l;+bshQ+v^F52
     C3K4A12  C2020 10 14$])%0=6.P2x8:C8O*c0n/KSqDvPr%hwKVMBm5rY3dM0VVo?fc(l6F52
     C3K4A12  C2020 10 16.33402003 29 33.72 +04 30 11.0    ~AG8b 21.14GVNEOCPG96
     C3K4A12  C2020 10 16.33917803 29 33.44 +04 30 03.4    ~AG8b 20.78GVNEOCPG96
     C3K4A12  C2020 10 16.34434303 29 33.21 +04 29 55.7    ~AG8b 22.13GVNEOCPG96
     C3K4A12  C2020 10 16.34950703 29 32.95 +04 29 48.0    ~AG8b 21.39GVNEOCPG96
     C3K4A12 mC2020 10 16.44668603 29 28.20 +04 27 21.0    ~AGB7 22.81GVNEOCPV06
     C3K4A12 mC2020 10 16.44817203 29 28.13 +04 27 18.7    ~AGB7 21.02GVNEOCPV06
     C3K4A12 mC2020 10 16.44965803 29 28.05 +04 27 16.6    ~AGB7 21.51GVNEOCPV06
     C3K4A12 KC2020 10 17.30429203 28 48.72 +04 05 24.1    ~AH7b 21.05GVNEOCPV06
     C3K4A12 KC2020 10 17.30666803 28 48.61 +04 05 20.1    ~AH7b 21.26GVNEOCPV06
     C3K4A12 KC2020 10 17.30904903 28 48.49 +04 05 16.6    ~AH7b 21.42GVNEOCPV06
     C3K4A12 KC2020 10 17.31143203 28 48.35 +04 05 12.8    ~AH7b 21.23GVNEOCPV06
     C3K4A12 mC2020 10 18.30265603 27 58.65 +03 39 06.5    ~AI7b 22.56GVNEOCPV06
     C3K4A12 mC2020 10 18.30415103 27 58.56 +03 39 04.4    ~AI7b 22.31GVNEOCPV06
     C3K4A12 mC2020 10 18.30563603 27 58.51 +03 39 02.2    ~AI7b 22.11GVNEOCPV06

Station data:
(F51) Pan-STARRS 1, Haleakala  (N20.707235 W156.255910)  US/Hawaii.
   Observers N. Primak, A. Schultz, S. Watters, J. Thiel, T. Goggia. Measurer
   PS1 Science Consortium. 1.8-m Ritchey-Chrétien + CCD.
(F52) Pan-STARRS 2, Haleakala  (N20.707384 W156.255910)  US/Hawaii. 1.8-m
   Ritchey-Chrétien + CCD.
(G96) Mt. Lemmon Survey  (N32.442754 W110.788720)  US/Arizona.  Observers T.
   A. Pruyne, B. M. Africano, E. J. Christensen, G. A. Farneth, D. C. Fuls,
   A. R. Gibbs, A. D. Grauer, H. Gröller, J. A. Johnson, R. A. Kowalski, S.
   M. Larson, G. J. Leonard, D. Rankin, R. L. Seaman, F. C. Shelly. 1.5-m
   reflector + 10K CCD.
(V06) Catalina Sky Survey-Kuiper  (N32.416847 W110.732550)  US/Arizona.
   Observers T. A. Pruyne, B. M. Africano, E. J. Christensen, G. A. Farneth,
   D. C. Fuls, A. R. Gibbs, A. D. Grauer, H. Gröller, J. A. Johnson, R. A.
   Kowalski, S. M. Larson, G. J. Leonard, D. Rankin, R. L. Seaman, F. C.
   Shelly. 1.55-m reflector + CCD.

Orbital elements:  C3K4A12
   Perihelion 2021 Feb 7.915953 +/- 0.071 TT = 21:58:58 (JD 2459253.415953)
Epoch 2020 Oct 18.0 TT = JDT 2459140.5   Earth MOID: 0.2435   AutoNEOCP
M 312.57281502 +/- 0.16             (J2000 ecliptic)
n   0.42002200 +/- 0.00125          Peri.  335.21703 +/- 0.043
a   1.76585356 +/- 0.00349          Node   193.32349 +/- 0.041
e   0.6941949 +/- 0.000929          Incl.   16.62458 +/- 0.032
P   2.35/857.08d           H 20.4   G  0.15   U  8.3  
q 0.54000698 +/- 0.000601    Q 2.99170015 +/- 0.0075
From 21 observations 2020 Oct. 9-18; mean residual 0".17
Residuals in arcseconds: 
201009 F51  .12-  .05-    201016 G96  .26+  .32-    201017 V06  .04+  .16+    
201009 F51  .11+  .04-    201016 G96  .19-  .14-    201017 V06  .24+  .15-    
201009 F51  .04+  .09+    201016 G96  .12+  .04-    201017 V06  .29+  .05+    
201014 F52  .46+  .01+    201016 G96  .01-  .05+    201017 V06  .05+  .04-    
201014 F52  .17-  .05+    201016 V06  .08-  .14+    201018 V06  .20-  .25-    
201014 F52  .13-  .10-    201016 V06  .05-  .09+    201018 V06  .30-  .04+    
201014 F52  .31-  .09+    201016 V06  .16-  .25+    201018 V06  .19+  .22+    

Ephemerides (geocentric):
Date (UTC) HH   RA              Dec         delta   r     elong  mag " sig PA
---- -- -- --  -------------   -----------  ------ ------ -----  --- ---- ---
2020 10 19 05  03 27 09.689   +03 14 40.01  .74965 1.6937 151.7 21.8 .283 115
2020 10 19 06  03 27 07.373   +03 13 31.31  .74911 1.6933 151.7 21.8 .289 115
2020 10 19 07  03 27 05.051   +03 12 22.53  .74857 1.6929 151.8 21.8 .296 115
2020 10 19 08  03 27 02.722   +03 11 13.66  .74803 1.6926 151.8 21.8 .302 115
2020 10 19 09  03 27 00.386   +03 10 04.70  .74749 1.6922 151.8 21.7 .309 115
2020 10 19 10  03 26 58.044   +03 08 55.66  .74695 1.6918 151.9 21.7 .315 115
2020 10 19 11  03 26 55.695   +03 07 46.54  .74641 1.6914 151.9 21.7 .322 115
2020 10 19 12  03 26 53.339   +03 06 37.33  .74587 1.6910 152.0 21.7 .328 115
2020 10 19 13  03 26 50.976   +03 05 28.03  .74533 1.6906 152.0 21.7 .335 115
2020 10 19 14  03 26 48.606   +03 04 18.65  .74479 1.6902 152.0 21.7 .342 115
2020 10 19 15  03 26 46.230   +03 03 09.18  .74425 1.6898 152.1 21.7 .349 115
2020 10 19 16  03 26 43.847   +03 01 59.63  .74372 1.6894 152.1 21.7 .355 115
2020 10 19 17  03 26 41.457   +03 00 49.99  .74318 1.6890 152.2 21.7 .362 115
2020 10 19 18  03 26 39.061   +02 59 40.27  .74264 1.6886 152.2 21.7 .369 115
2020 10 19 19  03 26 36.658   +02 58 30.46  .74211 1.6883 152.2 21.7 .376 116
2020 10 19 20  03 26 34.247   +02 57 20.56  .74157 1.6879 152.3 21.7 .383 116
2020 10 19 21  03 26 31.830   +02 56 10.58  .74104 1.6875 152.3 21.7 .390 116
2020 10 19 22  03 26 29.407   +02 55 00.51  .74050 1.6871 152.3 21.7 .397 116
2020 10 19 23  03 26 26.976   +02 53 50.35  .73997 1.6867 152.4 21.7 .404 116
2020 10 20 00  03 26 24.539   +02 52 40.11  .73943 1.6863 152.4 21.7 .412 116
2020 10 20 01  03 26 22.095   +02 51 29.79  .73890 1.6859 152.5 21.7 .419 116
2020 10 20 02  03 26 19.644   +02 50 19.37  .73836 1.6855 152.5 21.7 .426 116
2020 10 20 03  03 26 17.186   +02 49 08.88  .73783 1.6851 152.5 21.7 .434 116
2020 10 20 04  03 26 14.721   +02 47 58.29  .73730 1.6847 152.6 21.7 .441 116
2020 10 20 05  03 26 12.250   +02 46 47.62  .73677 1.6843 152.6 21.7 .448 116
2020 10 20 06  03 26 09.771   +02 45 36.86  .73623 1.6840 152.6 21.7 .456 116
2020 10 20 07  03 26 07.286   +02 44 26.02  .73570 1.6836 152.7 21.7 .464 116
2020 10 20 08  03 26 04.794   +02 43 15.09  .73517 1.6832 152.7 21.7 .471 116
2020 10 20 09  03 26 02.295   +02 42 04.07  .73464 1.6828 152.8 21.7 .479 116
2020 10 20 10  03 25 59.789   +02 40 52.97  .73411 1.6824 152.8 21.7 .487 116
2020 10 20 11  03 25 57.277   +02 39 41.78  .73358 1.6820 152.8 21.7 .494 116
2020 10 20 12  03 25 54.757   +02 38 30.50  .73305 1.6816 152.9 21.7 .502 117
2020 10 20 13  03 25 52.231   +02 37 19.14  .73252 1.6812 152.9 21.7 .510 117
2020 10 20 14  03 25 49.698   +02 36 07.69  .73199 1.6808 152.9 21.7 .518 117
2020 10 20 15  03 25 47.157   +02 34 56.15  .73147 1.6804 153.0 21.7 .526 117
2020 10 20 16  03 25 44.610   +02 33 44.53  .73094 1.6800 153.0 21.7 .534 117
2020 10 20 17  03 25 42.056   +02 32 32.82  .73041 1.6796 153.1 21.7 .542 117
2020 10 20 18  03 25 39.495   +02 31 21.02  .72988 1.6792 153.1 21.7 .550 117
2020 10 20 19  03 25 36.928   +02 30 09.14  .72936 1.6789 153.1 21.7 .558 117
2020 10 20 20  03 25 34.353   +02 28 57.17  .72883 1.6785 153.2 21.7 .566 117
2020 10 20 21  03 25 31.771   +02 27 45.11  .72830 1.6781 153.2 21.7 .575 117
2020 10 20 22  03 25 29.183   +02 26 32.96  .72778 1.6777 153.2 21.6 .583 117
2020 10 20 23  03 25 26.587   +02 25 20.73  .72725 1.6773 153.3 21.6 .591 117
2020 10 21 00  03 25 23.985   +02 24 08.41  .72673 1.6769 153.3 21.6 .600 117
2020 10 21 01  03 25 21.375   +02 22 56.00  .72620 1.6765 153.4 21.6 .608 117
2020 10 21 02  03 25 18.759   +02 21 43.51  .72568 1.6761 153.4 21.6 .617 117
2020 10 21 03  03 25 16.135   +02 20 30.93  .72516 1.6757 153.4 21.6 .625 117
2020 10 21 04  03 25 13.505   +02 19 18.26  .72463 1.6753 153.5 21.6 .634 117